Showing default

COSMOS 192, 3047

Orbit data source: Space-Track

COSMOS 192, 3047 is a payload satellite owned by OKB-10 (CIS) in LEO that was launched on Thu, 23 Nov 1967 UTC via a KOSMOS 11K65M launch vehicle from the Plesetsk Missile And Space Complex (PKMTR). Payload-class satellites include a variety of spacecraft equipped with specific instruments for various scientific and technological missions. These include communications satellites like Starlink; space stations such as the ISS; scientific satellites like the Hubble; Earth observation satellites from companies like Planet Labs, Umbra, and HawkEye 360; GPS; miniature CubeSats for education and research; and military/defense satellites.

Loading next visibility...
Identifier
3047, 1967-116A
Orbit
LEO
Last TLE update
10 hours ago
Origin
Manufacturer
OKB-10
Mission
Defense Navigation
Bus & Motor
KAUR-1 11F617, Unknown motor
Mass
775 kg wet, 775 kg dry
Launch date (UTC)
1967-11-23 (57 years ago)
Launch vehicle
KOSMOS 11K65M
Launch site
Plesetsk Missile And Space Complex (PKMTR)
Object type
Payload
Rocket body
Debris
Shape & HBR
Cyl + 1 Rod, 17 m
Radar Cross Section
9.978 m², Large (>1 m²)

Expand to show TLE details & history

TLE from 10 hours ago
0 COSMOS 192
1  3047U 67116A   25129.24658608  .00000465  00000-0  10928-3 0  9991
2  3047  74.0128  64.3642 0008784 322.8157  37.2398 14.57244474 40231
Epoch: 2025-05-09T05:55Z
Definitive object data (Epoch: 2025-05-09T05:55:05.037Z)
Latitude
0.00002°
Longitude
108.28774°
Altitude
699.771 km
Speed
7.509 km/s
True Right ascension
04h 17m 27s
True Declination
0° 00' 00"
Sunlit
Object was in daylight at TLE epoch
Visualization TLE readout
Latitude
69.4325°
Longitude
-121.94876°
Altitude
718.587 km
Speed
7.5 km/s
Apparent Right ascension
12h 36m 57s
Apparent Declination
19° 03' 26"
Sunlit
Object is in daylight
Visualization observer readout
Local Sidereal Time
00:27:00
Azimuth
357.253° N
Elevation
-30.981°
Doppler factor
1
Orbital elements
Apogee altitude
705.905 km
Perigee altitude
693.471 km
Semi-major axis
7,077.825 km
Eccentricity
0.0008784
Inclination
74.0128°
RAAN
64.3642°
Arg. of periapsis
322.8157°
True anomaly
37.30077°
Mean anomaly
37.2398°
Eccentric anomaly
37.27028°
Mean motion
3.64497 °/min
BSTAR
0.00010928
Orbital period
98.77 mins
Loading maneuver chart data...
Loading SW <> Apogee altitude chart data...
Loading historical data...
Loading historical data...
Loading historical data...
Loading historical data...
Loading historical data...
Loading historical data...
Loading historical data...

COSMOS 192 Visibility forecast

Observer location: undefined°, undefined°

Span
Click to sort rows by Start time (UTC) header in descending order
Start Az.
Max El. time (UTC)
Max El. Az.
Max El.
End time (UTC)
End Az.
9 mins2025-05-09 20:51:32.955Z197.031° SSW2025-05-09 20:56:32.955Z23.475° NE44.467°2025-05-09 21:00:32.955Z19.191° NNE
4 mins2025-05-10 05:33:32.955Z37.019° NE2025-05-10 05:34:32.955Z50.447° ENE14.326°2025-05-10 05:37:32.955Z89.188° E
8 mins2025-05-10 07:12:32.955Z331.839° NNW2025-05-10 07:16:32.955Z222.672° SW41.098°2025-05-10 07:20:32.955Z174.231° S
|